Home   Weather   Redcar   Past weeks
Flag for United Kingdom

Past Weather in Redcar, England, United Kingdom — Yesterday and Last 2 Weeks

Now
41 °F

Quite cool.


Feels Like: 41 °F
Forecast: 57 / 46 °F
Wind: 2 mph from Southwest

Location: Leeming
Current Time: Sep 28, 2020 at 1:13:40 am
Latest Report: Sep 27, 2020 at 11:50 pm
Visibility: N/A
Pressure29.98 "Hg
Humidity: 100%
Dew Point: 41 °F
Location of RedcarLocation

Past Weather in Redcar — Graph

°F

Redcar Temperature Yesterday

Maximum temperature yesterday: 54 °F (at 4:50 pm)
Minimum temperature yesterday: 41 °F (at 9:50 pm)
Average temperature yesterday: 48 °F

High & Low Weather Summary for the Past Weeks

 TemperatureHumidityPressure
High79 °F (Sep 15, 3:20 pm)100% (Sep 14, 3:50 am)30.51 "Hg (Sep 14, 3:50 am)
Low39 °F (Sep 24, 6:50 am)48% (Sep 15, 3:20 pm)29.33 "Hg (Sep 24, 6:50 am)
Average56 °F79%29.99 "Hg
* Reported Sep 12 11:50 pm — Sep 27 11:50 pm, Redcar. Weather by CustomWeather, © 2020

Note: Actual official high and low records may vary slightly from our data, if they occured in-between our weather recording intervals... More about our weather records

Redcar Weather History for the Previous 24 Hours

Scroll right to see more
 ConditionsComfort  
Time TempWeatherWind HumidityBarometerVisibility
11:50 pm
Sun, Sep 27
41 °FQuite cool.2 mph100%29.98 "HgN/A
10:50 pm41 °FPassing clouds.3 mph93%29.98 "HgN/A
9:50 pm41 °FQuite cool.5 mph93%29.98 "HgN/A
8:50 pm43 °FDrizzle. Overcast.3 mph93%29.98 "HgN/A
7:50 pm45 °FQuite cool.3 mph93%29.98 "HgN/A
6:50 pm48 °FCool.5 mph82%29.98 "HgN/A
5:50 pm52 °FCool.8 mph72%29.98 "HgN/A
4:50 pm54 °FPassing clouds.12 mph67%29.98 "HgN/A
3:50 pm52 °FOvercast.10 mph72%29.98 "HgN/A
2:50 pm52 °FPartly sunny.12 mph77%29.98 "HgN/A
1:50 pm52 °FOvercast.13 mph72%29.98 "HgN/A
12:50 pm52 °FOvercast.10 mph77%30.01 "HgN/A
11:50 am52 °FOvercast.14 mph72%29.98 "HgN/A
10:50 am50 °FOvercast.14 mph71%30.01 "HgN/A
9:50 am50 °FOvercast.15 mph76%29.98 "HgN/A
8:50 am50 °FOvercast.14 mph71%30.01 "HgN/A
7:50 am48 °FOvercast.12 mph76%29.98 "HgN/A
6:50 am48 °FOvercast.15 mph76%29.98 "HgN/A
5:50 am48 °FOvercast.15 mph76%29.98 "HgN/A
4:50 am48 °FOvercast.16 mph76%29.98 "HgN/A
3:50 am48 °FOvercast.16 mph76%30.01 "HgN/A
2:50 am48 °FOvercast.14 mph76%30.01 "HgN/A
1:50 am48 °FOvercast.15 mph76%30.01 "HgN/A
Weather by CustomWeather, © 2020

See weather overview